Regional Weather Roundup
Issued by NWS

Home | Current Version | Previous Version | Text Only | Print | Product List | Glossary On
Versions: 1 2 3 4 5 6 7 8 9 10 11 12 13 14 15 16 17 18 19 20 21 22 23 24 25 26 27 28 29 30 31 32 33 34 35 36 37 38 39 40 41 42 43 44 45 46 47 48 49 50
805
ASCA44 KEWX 050820
RWRMX

LATIN AMERICA AND CARIBBEAN REGIONAL WEATHER ROUNDUP
NATIONAL WEATHER SERVICE AUSTIN/SAN ANTONIO TX
300 AM CDT THU MAY 05 2016

NOTE: "FAIR" INDICATED FEW OR NO CLOUDS BELOW 12,000 FEET WITH NO
SIGNIFICANT WEATHER AND/OR OBSTRUCTIONS TO VISIBILITY.

BAJA CALIFORNIA

CITY           SKY/WX    TMP DP  RH WIND       PRES   REMARKS
MEXICALI       PTCLDY    72  52  49 E5        29.73F
S.J. DEL CABO    N/A    N/A N/A N/A MISG        N/A
TIJUANA        MOCLDY    57  48  72 W5        29.96S

NORTHWESTERN MEXICO

CITY           SKY/WX    TMP DP  RH WIND       PRES   REMARKS
HERMOSILLO     MOCLDY    72  43  35 CALM      29.90S

NORTHEASTERN MEXICO

CITY           SKY/WX    TMP DP  RH WIND       PRES   REMARKS
MONCLOVA         N/A    N/A N/A N/A MISG        N/A
MONTERREY      CLEAR     66  55  68 CALM      30.04F
REYNOSA          N/A    N/A N/A N/A MISG        N/A
CD. VICTORIA     N/A    N/A N/A N/A MISG        N/A

WESTERN MEXICO

CITY           SKY/WX    TMP DP  RH WIND       PRES   REMARKS
AGUASCALIENTES   N/A    N/A N/A N/A MISG        N/A
COLIMA           N/A    N/A N/A N/A MISG        N/A
GUADALAJARA    CLEAR     70  41  35 CALM      30.18F
MAZATLAN       CLEAR     63  59  88 CALM      29.91F
P. VALLARTA    CLEAR     72  70  94 NE5       29.91F
URUAPAN          N/A    N/A N/A N/A MISG        N/A
ZACATECAS      CLEAR     54  30  40 CALM      30.29F

CENTRAL MEXICO

CITY           SKY/WX    TMP DP  RH WIND       PRES   REMARKS
CUERNAVACA       N/A    N/A N/A N/A MISG        N/A
MEXICO CITY    CLEAR     59  50  72 E3        30.33F
MORELIA        PTCLDY    64  50  59 NW3       30.23R
POZA RICA        N/A    N/A N/A N/A MISG        N/A
S. LUIS POTOSI MOCLDY    57  52  82 E7        30.28F
TOLUCA         MOCLDY    55  50  82 SE7       30.40F

SOUTHERN MEXICO

CITY           SKY/WX    TMP DP  RH WIND       PRES   REMARKS
ACAPULCO       MOCLDY    79  75  89 CALM      29.89F
B. DE HUATULCO   N/A    N/A N/A N/A MISG        N/A
P. ESCONDIDO     N/A    N/A N/A N/A MISG        N/A
VERACRUZ         N/A    N/A N/A N/A MISG        N/A

YUCATAN PENINSULA

CITY           SKY/WX    TMP DP  RH WIND       PRES   REMARKS
CAMPECHE         N/A    N/A N/A N/A MISG        N/A
CANCUN         MOCLDY    75  73  94 NW2       29.87F
CHETUMAL         N/A    N/A N/A N/A MISG        N/A
CD. DEL CARMEN   N/A    N/A N/A N/A MISG        N/A
COZUMEL        PTCLDY    75  73  94 N8        29.87F
MERIDA         CLEAR     75  66  73 CALM      29.91F
MINATITLAN       N/A    N/A N/A N/A MISG        N/A
TAPACHULA      MOCLDY    79  75  89 CALM      29.80F

CENTRAL AMERICA

CITY           SKY/WX    TMP DP  RH WIND       PRES   REMARKS
MANAGUA        MOSUNNY   82  75  78 W7        29.77F

CARIBBEAN

CITY           SKY/WX    TMP DP  RH WIND       PRES   REMARKS
CURACAO        PTCLDY    81  75  83 E12       29.83F
KINGSTON       MOCLDY    82  75  78 SE12      29.83F
SAN JUAN       PTCLDY    77  73  88 E3        29.93F
SANTO DOMINGO  MOCLDY    79  75  89 SE5       29.86F
ST. CROIX      MOCLDY    77  73  88 E8        29.95
ST. THOMAS     CLEAR     81  73  78 E12       29.93

$$





USA.gov is the U.S. government's official web portal to all federal, state and local government web resources and services.